Location: *
(35.8942°N, 23.3025°E)
Time: 23:47:48
(UTC+00:00)

Spot 4 Rocket - Pass Details

Date: 21 September 2021
Orbit: 775 x 782 km, 98.8° (Epoch: 22 October)

Event Time Altitude Azimuth Distance (km) Brightness Sun altitude
Rises 02:14:09 0° 11° (NNE) 3,264 7.7 -24.6°
Reaches altitude 10° 02:16:29 10° 11° (N) 2,331 6.9 -24.1°
Maximum altitude 02:21:37 81° 286° (WNW) 788 3.9 -23.1°
Enters shadow 02:23:17 44° 204° (SSW) 1,060 4.4 -22.8°
